KC7VZS Weather Reports


time (UTC)temp
C
wind
direction
speed
KPH
gust
KPH
rain 1hr
cm
rain 24hr
cm
rain mn
cm
humidity
%
barometer
mb
20260502123021 9 67 4.8 17.7 0.00 0.00 0.00 55 868.3
20260502121524 9 54 11.3 16.1 0.00 0.00 0.00 54 868.4
20260502114511 8 66 3.2 12.9 0.00 0.00 0.00 53 868.3
20260502113011 7 23 0.0 4.8 0.00 0.00 0.00 54 868.2
20260502111510 8 62 0.0 4.8 0.00 0.00 0.00 54 868.3
20260502110009 7 46 4.8 11.3 0.00 0.00 0.00 55 868.3
20260502104514 8 71 0.0 6.4 0.00 0.00 0.00 55 868.2
20260502103007 8 59 0.0 8.0 0.00 0.00 0.00 56 868.2
20260502101510 7 62 1.6 8.0 0.00 0.00 0.00 56 868.2
20260502091504 6 75 0.0 0.0 0.00 0.00 0.00 64 868.0
20260502070110 7 88 0.0 4.8 0.00 0.00 0.00 59 868.2
20260502064551 7 126 0.0 3.2 0.00 0.00 0.00 55 868.2
20260502063050 8 113 1.6 4.8 0.00 0.00 0.00 52 868.1
20260502061545 8 50 0.0 1.6 0.00 0.00 0.00 53 868.1
20260502060045 8 200 0.0 0.0 0.00 0.00 0.00 51 868.0
20260502054541 9 200 0.0 0.0 0.00 0.00 0.00 49 867.9
20260502053040 10 200 0.0 1.6 0.00 0.00 0.00 47 867.8
20260502051551 10 200 0.0 0.0 0.00 0.00 0.00 45 867.8
20260502050044 10 200 0.0 0.0 0.00 0.00 0.00 43 867.8
20260502044543 11 200 0.0 0.0 0.00 0.00 0.00 40 867.7
20260502043041 11 200 0.0 0.0 0.00 0.00 0.00 42 867.8
20260502041537 12 200 0.0 1.6 0.00 0.00 0.00 35 867.6
20260502040037 13 200 0.0 1.6 0.00 0.00 0.00 34 867.4
20260502034536 13 200 0.0 3.2 0.00 0.00 0.00 32 867.3
20260502033035 13 200 0.0 3.2 0.00 0.00 0.00 33 867.1
20260502031536 13 200 0.0 0.0 0.00 0.00 0.00 32 867.0
20260502030041 14 200 0.0 0.0 0.00 0.00 0.00 32 866.6
20260502024535 15 200 0.0 0.0 0.00 0.00 0.00 30 866.5
20260502023034 15 200 0.0 3.2 0.00 0.00 0.00 30 866.3
20260502021533 16 200 1.6 4.8 0.00 0.00 0.00 29 866.3
20260502020033 16 179 3.2 6.4 0.00 0.00 0.00 29 866.2
20260502014535 16 178 3.2 8.0 0.00 0.00 0.00 28 866.1
20260502013032 17 179 1.6 8.0 0.00 0.00 0.00 28 866.0
20260502011532 17 180 4.8 11.3 0.00 0.00 0.00 28 865.9
20260502010031 17 192 1.6 11.3 0.00 0.00 0.00 28 865.9
20260502004530 17 267 3.2 11.3 0.00 0.00 0.00 28 865.9
20260502003029 17 235 3.2 11.3 0.00 0.00 0.00 27 865.9
20260502001529 18 182 3.2 14.5 0.00 0.00 0.00 27 866.0
20260502000029 18 197 3.2 11.3 0.00 0.00 0.00 27 866.1
20260501234535 18 171 4.8 16.1 0.00 0.00 0.00 27 866.1
20260501233029 18 198 3.2 16.1 0.00 0.00 0.00 26 866.1
20260501231526 18 261 3.2 14.5 0.00 0.00 0.00 26 866.1
20260501230026 18 196 3.2 11.3 0.00 0.00 0.00 24 866.1
20260501224528 18 244 1.6 16.1 0.00 0.00 0.00 25 866.2
20260501223024 18 185 4.8 14.5 0.00 0.00 0.00 24 866.3
20260501221524 18 120 4.8 11.3 0.00 0.00 0.00 24 866.5
20260501220023 18 286 3.2 11.3 0.00 0.00 0.00 24 866.5
20260501214536 18 96 1.6 8.0 0.00 0.00 0.00 25 866.6
20260501213022 18 208 6.4 14.5 0.00 0.00 0.00 25 866.8
20260501211521 18 215 3.2 12.9 0.00 0.00 0.00 24 866.9
20260501210021 18 38 1.6 6.4 0.00 0.00 0.00 25 866.9
20260501204518 18 175 1.6 8.0 0.00 0.00 0.00 26 866.9
20260501203017 18 304 6.4 12.9 0.00 0.00 0.00 24 867.1
20260501201516 18 189 3.2 9.7 0.00 0.00 0.00 26 867.0
20260501200016 18 210 3.2 11.3 0.00 0.00 0.00 25 867.1
20260501194515 18 305 3.2 9.7 0.00 0.00 0.00 25 867.3
20260501193013 17 190 1.6 11.3 0.00 0.00 0.00 25 867.4
20260501191513 18 250 3.2 11.3 0.00 0.00 0.00 26 867.5
20260501190028 17 82 0.0 6.4 0.00 0.00 0.00 25 867.6
20260501184513 17 195 3.2 8.0 0.00 0.00 0.00 25 867.8
20260501183008 17 209 3.2 9.7 0.00 0.00 0.00 26 867.9
20260501181513 17 311 6.4 11.3 0.00 0.00 0.00 25 868.0
20260501180003 16 157 3.2 9.7 0.00 0.00 0.00 30 868.2
20260501174559 16 5 0.0 8.0 0.00 0.00 0.00 32 868.3
20260501173110 16 199 0.0 9.7 0.00 0.00 0.00 32 868.4
20260501171551 16 177 6.4 12.9 0.00 0.00 0.00 32 868.4
20260501170047 15 189 1.6 8.0 0.00 0.00 0.00 33 868.5
20260501164548 15 138 0.0 6.4 0.00 0.00 0.00 35 868.5
20260501163039 14 187 3.2 8.0 0.00 0.00 0.00 36 868.5
20260501161536 14 148 0.0 8.0 0.00 0.00 0.00 39 868.4
20260501160034 13 188 0.0 6.4 0.00 0.00 0.00 40 868.4
20260501154526 12 178 1.6 6.4 0.00 0.00 0.00 43 868.4
20260501153047 12 186 0.0 6.4 0.00 0.00 0.00 45 868.4
20260501151518 11 300 0.0 6.4 0.00 0.00 0.00 45 868.5